KB5SMY Weather Reports


time (UTC)temp
C
wind
direction
speed
KPH
gust
KPH
rain 1hr
cm
rain 24hr
cm
rain mn
cm
humidity
%
barometer
mb
20260506104004 14 22 9.7 14.5 0.00 0.00 0.00 77 1011.5
20260506103004 14 24 8.0 16.1 0.00 0.00 0.00 77 1011.1
20260506102004 14 347 8.0 16.1 0.00 0.00 0.00 77 1010.9
20260506101004 15 329 4.8 14.5 0.00 0.00 0.00 78 1010.8
20260506100211 15 329 4.8 12.9 0.00 0.00 0.00 78 1010.7
20260506095004 15 15 6.4 16.1 0.00 0.00 0.00 78 1010.4
20260506094004 15 355 4.8 14.5 0.00 0.00 0.00 79 1010.2
20260506093004 15 331 6.4 14.5 0.00 0.00 0.00 79 1010.3
20260506092004 15 17 4.8 14.5 0.00 0.00 0.00 79 1010.2
20260506091004 15 338 9.7 14.5 0.00 0.00 0.00 79 1010.2
20260506090004 15 5 4.8 16.1 0.00 0.00 0.00 79 1010.2
20260506085004 15 5 6.4 14.5 0.00 0.00 0.00 79 1010.2
20260506084004 15 360 8.0 12.9 0.00 0.00 0.00 79 1010.2
20260506083004 15 331 6.4 12.9 0.00 0.00 0.00 79 1010.0
20260506082004 15 5 8.0 14.5 0.00 0.00 0.00 79 1009.9
20260506081004 15 360 19.3 19.3 0.00 0.00 0.00 79 1009.8
20260506073004 16 36 6.4 12.9 0.00 0.00 0.00 80 1009.7
20260506072005 16 351 6.4 9.7 0.00 0.00 0.00 79 1009.7
20260506071004 16 14 4.8 8.0 0.00 0.00 0.00 79 1009.6
20260506062004 16 346 6.4 12.9 0.00 0.00 0.00 76 1009.3
20260506061004 16 341 4.8 14.5 0.00 0.00 0.00 76 1009.3
20260506051004 17 28 4.8 16.1 0.00 0.00 0.00 74 1009.4
20260506045004 18 18 3.2 16.1 0.00 0.00 0.00 73 1009.4
20260506044004 18 349 8.0 16.1 0.00 0.00 0.00 73 1009.3
20260506043211 18 11 6.4 17.7 0.00 0.00 0.00 72 1009.3
20260506042004 18 347 9.7 16.1 0.00 0.00 0.00 72 1009.1
20260506041004 19 5 4.8 17.7 0.00 0.00 0.00 72 1009.4
20260506040004 19 20 11.3 17.7 0.00 0.00 0.00 71 1009.3
20260506035004 19 338 8.0 17.7 0.00 0.00 0.00 71 1009.2
20260506034004 20 355 6.4 16.1 0.00 0.00 0.00 71 1009.1
20260506033005 20 334 3.2 19.3 0.00 0.00 0.00 71 1008.9
20260506032211 20 351 14.5 20.9 0.00 0.00 0.00 70 1008.7
20260506031004 20 360 16.1 17.7 0.00 0.00 0.00 70 1008.2
20260506030004 20 5 8.0 16.1 0.00 0.00 0.00 70 1007.9
20260506025004 20 342 9.7 16.1 0.00 0.00 0.00 69 1007.6
20260506024004 21 360 6.4 17.7 0.00 0.00 0.00 69 1007.5
20260506023004 21 346 6.4 22.5 0.00 0.00 0.00 68 1007.3
20260506022004 21 342 12.9 17.7 0.00 0.00 0.00 68 1007.0
20260506021004 22 39 16.1 17.7 0.00 0.00 0.00 67 1006.8
20260506020004 22 355 8.0 14.5 0.00 0.00 0.00 68 1006.7
20260506015004 22 338 8.0 14.5 0.00 0.00 0.00 67 1006.5
20260506014004 22 14 4.8 14.5 0.00 0.00 0.00 66 1006.3
20260506013004 22 323 3.2 12.9 0.00 0.00 0.00 65 1005.9
20260506012004 23 9 8.0 16.1 0.00 0.00 0.00 64 1005.6
20260506011004 23 335 6.4 16.1 0.00 0.00 0.00 64 1005.7
20260506010005 23 9 4.8 14.5 0.00 0.00 0.00 63 1005.3
20260506005004 24 44 4.8 14.5 0.00 0.00 0.00 62 1005.4
20260506004005 24 5 14.5 19.3 0.00 0.00 0.00 62 1005.4
20260506003005 25 355 9.7 16.1 0.00 0.00 0.00 61 1004.9
20260506002003 25 335 4.8 20.9 0.00 0.00 0.00 59 1004.8
20260506001004 26 33 14.5 22.5 0.00 0.00 0.00 58 1004.7
20260506000004 27 30 6.4 20.9 0.00 0.00 0.00 58 1004.7
20260505235004 28 355 16.1 25.7 0.00 0.00 0.00 57 1004.6
20260505234004 29 12 16.1 25.7 0.00 0.00 0.00 55 1004.2
20260505233004 29 44 8.0 20.9 0.00 0.00 0.00 50 1003.8
20260505232004 31 67 12.9 32.2 0.00 0.00 0.00 46 1003.7
20260505231004 33 161 3.2 16.1 0.00 0.00 0.00 40 1003.4
20260505230004 33 234 4.8 8.0 0.00 0.00 0.00 41 1003.3
20260505225004 33 259 6.4 8.0 0.00 0.00 0.00 38 1003.3
20260505224004 34 211 6.4 9.7 0.00 0.00 0.00 37 1003.3
20260505223004 34 189 3.2 9.7 0.00 0.00 0.00 38 1003.2
20260505222004 34 212 4.8 11.3 0.00 0.00 0.00 38 1003.2
20260505221004 34 190 6.4 11.3 0.00 0.00 0.00 40 1003.1
20260505220212 34 275 6.4 8.0 0.00 0.00 0.00 38 1003.1
20260505215004 34 228 4.8 8.0 0.00 0.00 0.00 39 1003.1
20260505214004 34 332 8.0 14.5 0.00 0.00 0.00 40 1003.3
20260505213004 34 314 3.2 9.7 0.00 0.00 0.00 39 1003.2
20260505212005 33 246 3.2 11.3 0.00 0.00 0.00 42 1003.5
20260505211005 33 218 1.6 12.9 0.00 0.00 0.00 41 1003.5
20260505210004 33 224 6.4 12.9 0.00 0.00 0.00 43 1003.6
20260505205004 33 313 1.6 14.5 0.00 0.00 0.00 43 1003.9
20260505204211 33 236 9.7 16.1 0.00 0.00 0.00 42 1004.1
20260505203212 33 319 3.2 11.3 0.00 0.00 0.00 44 1004.2
20260505202005 33 216 3.2 12.9 0.00 0.00 0.00 44 1004.0
20260505201004 33 213 6.4 14.5 0.00 0.00 0.00 44 1004.4
20260505200004 33 271 3.2 11.3 0.00 0.00 0.00 48 1004.4
20260505195004 32 298 1.6 16.1 0.00 0.00 0.00 50 1004.5
20260505194004 32 233 8.0 12.9 0.00 0.00 0.00 48 1004.6
20260505193004 32 242 4.8 16.1 0.00 0.00 0.00 49 1004.6
20260505192004 32 124 4.8 16.1 0.00 0.00 0.00 48 1004.7
20260505191004 31 197 1.6 16.1 0.00 0.00 0.00 52 1004.7
20260505190212 31 166 6.4 17.7 0.00 0.00 0.00 53 1004.7
20260505185004 31 250 6.4 14.5 0.00 0.00 0.00 53 1004.8
20260505184212 31 194 4.8 16.1 0.00 0.00 0.00 55 1004.9
20260505183004 30 236 6.4 12.9 0.00 0.00 0.00 58 1005.1
20260505182004 30 252 11.3 17.7 0.00 0.00 0.00 57 1005.2
20260505181004 30 211 4.8 14.5 0.00 0.00 0.00 59 1005.2
20260505180004 29 199 6.4 12.9 0.00 0.00 0.00 60 1005.3
20260505175004 29 232 8.0 16.1 0.00 0.00 0.00 61 1005.4
20260505174211 28 227 8.0 17.7 0.00 0.00 0.00 63 1005.5
20260505173005 28 164 9.7 19.3 0.00 0.00 0.00 63 1005.6
20260505172004 28 237 4.8 14.5 0.00 0.00 0.00 65 1005.7
20260505171004 28 211 8.0 14.5 0.00 0.00 0.00 64 1005.6
20260505170212 28 232 4.8 16.1 0.00 0.00 0.00 67 1005.6
20260505165005 27 184 3.2 19.3 0.00 0.00 0.00 67 1005.4
20260505164005 27 249 6.4 17.7 0.00 0.00 0.00 68 1005.3
20260505163005 26 178 9.7 19.3 0.00 0.00 0.00 68 1005.3
20260505162004 26 200 11.3 24.1 0.00 0.00 0.00 68 1005.1
20260505161004 26 163 9.7 20.9 0.00 0.00 0.00 69 1005.1
20260505153004 26 246 8.0 16.1 0.00 0.00 0.00 72 1005.3
20260505152004 26 186 6.4 24.1 0.00 0.00 0.00 72 1005.5
20260505151211 25 214 9.7 19.3 0.00 0.00 0.00 74 1005.6
20260505125004 21 135 3.2 14.5 0.00 0.00 0.00 85 1005.1
20260505124005 21 173 4.8 19.3 0.00 0.00 0.00 85 1005.2
20260505123004 21 177 6.4 14.5 0.00 0.00 0.00 85 1004.8
20260505122004 21 165 8.0 16.1 0.00 0.00 0.00 85 1004.6
20260505121004 21 215 9.7 25.7 0.00 0.00 0.00 85 1004.4
20260505120005 21 193 6.4 19.3 0.00 0.00 0.00 85 1004.3
20260505115004 21 191 6.4 17.7 0.00 0.00 0.00 85 1004.2
20260505114004 21 203 8.0 16.1 0.00 0.00 0.00 85 1004.1
20260505113005 21 138 8.0 19.3 0.00 0.00 0.00 85 1003.9
20260505112004 21 187 11.3 16.1 0.00 0.00 0.00 85 1004.1
20260505111004 21 184 6.4 22.5 0.00 0.00 0.00 85 1004.0